Location: Huberhof
(49.2050°N, 7.4980°E)
Time: 00:35:55
(UTC+00:00)

ARGOS - Pass Details

Date: 29 October 2020
Orbit: 820 x 835 km, 98.4° (Epoch: 26 November)

Event Time Altitude Azimuth Distance (km) Brightness Sun altitude
Exits shadow 18:17:20 27° 142° (SE) 1,557 4.2 -20.8°
Maximum altitude 18:20:16 62° 70° (ENE) 939 3.1 -21.2°
Drops below altitude 10° 18:25:38 10° 351° (N) 2,459 5.8 -22.1°
Sets 18:28:02 0° 349° (NNW) 3,397 6.6 -22.5°
